Skip Page Navigation
NASA JPL Caltech
NASA Logo - Jet Propulsion Laboratory + View the NASA Portal
+ Center for Near-Earth Object Studies
JPL Home Earth Solar System Stars & Galaxies Technology
JPL Solar System Dynamics
BODIES ORBITS EPHEMERIDES TOOLS PHYSICAL DATA DISCOVERY FAQ SITE MAP
IMPORTANT: The SSD Announcement email list is now available. Major changes are coming in the near future, including possible hostname and/or URL changes. To be notified of such changes, subscribe to this email list.

Please visit this page for more details.


JPL Small-Body Database Browser
Search: [ help ]  
35338 (1997 GD7)
Classification: Main-belt Asteroid          SPK-ID: 2035338
Ephemeris | Orbit Diagram | Orbital Elements | Mission Design | Physical Parameters | Discovery Circumstances | Close-Approach Data ]

[ show orbit diagram ]
Orbital Elements at Epoch 2458600.5 (2019-Apr-27.0) TDB
Reference: JPL 19 (heliocentric ecliptic J2000)
 Element Value Uncertainty (1-sigma)   Units 
e .09473540689754337 3.7907e-08  
a 3.190815693476982 2.2507e-08 au
q 2.888532470420373 1.2256e-07 au
i 1.997686553054054 4.4604e-06 deg
node 75.35420716382755 0.00013224 deg
peri 168.6715490631743 0.00013465 deg
M 280.895597033759 2.5972e-05 deg
tp 2459057.955825237986
(2020-Jul-27.45582524)
0.00015101 TDB
period 2081.857531444319
5.70
2.2027e-05
6.031e-08
d
yr
n .1729224956859775 1.8296e-09 deg/d
Q 3.493098916533592 2.4639e-08 au
  Orbit Determination Parameters
   # obs. used (total)      926  
   data-arc span      8071 days (22.10 yr)  
   first obs. used      1997-04-02  
   last obs. used      2019-05-08  
   planetary ephem.      DE431  
   SB-pert. ephem.      SB431-N16  
   condition code      0  
   norm. resid. RMS      .57868  
   source      ORB  
   producer      Otto Matic  
   solution date      2019-May-30 03:53:58  

Additional Information
 Earth MOID = 1.87523 au 
 Jupiter MOID = 1.51686 au 
 T_jup = 3.189 
[ show covariance matrix ]

Ephemeris | Orbit Diagram | Orbital Elements | Mission Design | Physical Parameters | Discovery Circumstances | Close-Approach Data ]

Physical Parameter Table
Parameter Symbol Value Units Sigma Reference Notes
absolute magnitude H 14.2   n/a MPO431898  
diameter diameter 7.949 km 0.133 urn:nasa:pds:neowise_diameters_albedos::2.0[mainbelt] (http://adsabs.harvard.edu/abs/2011ApJ...741...68M)  
geometric albedo albedo 0.058   0.009 urn:nasa:pds:neowise_diameters_albedos::2.0[mainbelt] (http://adsabs.harvard.edu/abs/2011ApJ...741...68M)  

35338 (1997 GD7)          Discovered 1997-Apr-02 by LINEAR at Socorro
Reference: 20020227/Numbers.arcLast Updated: 2004-04-19

[ show close-approach data ]
Alternate Designations
 1997 GD7 = 1999 VE91 
Ephemeris | Orbit Diagram | Orbital Elements | Mission Design | Physical Parameters | Discovery Circumstances | Close-Approach Data ]
ABOUT SSD CREDITS/AWARDS PRIVACY/COPYRIGHT GLOSSARY LINKS
FirstGov 2019-Oct-22 07:15 UT
(server date/time)  
NASA Home Page
Site Manager:   Ryan S. Park
Webmaster  Alan B. Chamberlin